Location: Bittkow
(50.3000°N, 19.0000°E)
Time: 23:21:36
(UTC+00:00)

Cosmos 1743 - Pass Details

Date: 19 September 2020
Orbit: 511 x 526 km, 82.6° (Epoch: 31 October)

Event Time Altitude Azimuth Distance (km) Brightness Sun altitude
Rises 03:32:28 0° 353° (N) 2,638 6.4 -9.3°
Reaches altitude 10° 03:34:38 10° 357° (N) 1,746 5.5 -9.0°
Maximum altitude 03:38:24 57° 77° (ENE) 612 3.5 -8.4°
Drops below altitude 10° 03:42:08 10° 157° (SSE) 1,730 5.5 -7.8°
Sets 03:44:17 0° 161° (SSE) 2,612 6.4 -7.5°
